Weather History for Ft Pierce, FL

Change the Weather History Date:

Tuesday, March 5, 2013

  Actual Average Record
Temperature  
Mean Temperature 54 °F -  
Max Temperature 73 °F 77 °F 88 °F (1932)
Min Temperature 36 °F 57 °F 36 °F (2013)
Degree Days  
Heating Degree Days 10    
Growing Degree Days 4 (Base 50)    
Moisture  
Dew Point 47 °F    
Average Humidity 68    
Maximum Humidity 97    
Minimum Humidity 38    
Precipitation  
Precipitation 0.00 in - - ()
Sea Level Pressure  
Sea Level Pressure 30.13 in    
Wind  
Wind Speed 4 mph (SSE)    
Max Wind Speed 15 mph    
Max Gust Speed 21 mph    
Visibility 10 miles    
Events      
Averages and records for this station are not official NWS values.
T = Trace of Precipitation, MM = Missing Value Source: NWS Daily Summary

Daily Weather History Graph

Daily Weather History Graph

Search for Another Location

Airport:

Trip Planner

Search our weather history database for the weather conditions in past years. The results will help you decide how hot, cold, wet, or windy it might be!

Date:

Astronomy

Mar. 05, 2013 Rise Set
Actual Time 6:41 AM EST 6:24 PM EST
Civil Twilight 6:18 AM EST 6:48 PM EST
Nautical Twilight 5:51 AM EST 7:15 PM EST
Astronomical Twilight 5:23 AM EST 7:42 PM EST
Moon 1:29 AM EST (3/5) 12:24 PM EST (3/5)
Length of Visible Light 12h 30m
Length of Day
11h 43m
Last Quarter, 41% of the Moon is Illuminated
Mar 5
Last Quarter
Mar 11
New
Mar 19
First Quarter
Mar 27
Full
Apr 3
Last Quarter

Hourly Weather History & Observations

Time (EST) Temp. Windchill Dew Point Humidity Pressure Visibility Wind Dir Wind Speed Gust Speed Precip Events Conditions
12:53 AM 39.9 °F - 37.0 °F 89% 30.18 in 10.0 mi Calm Calm - N/A   Clear
2:53 AM 37.9 °F - 35.1 °F 89% 30.15 in 4.0 mi Calm Calm - N/A   Clear
3:53 AM 36.0 °F - 33.1 °F 89% 30.15 in 10.0 mi Calm Calm - N/A   Clear
4:53 AM 37.9 °F - 37.0 °F 97% 30.15 in 10.0 mi Calm Calm - N/A   Clear
5:53 AM 37.0 °F 34.5 °F 35.1 °F 93% 30.17 in 10.0 mi WNW 3.5 mph - N/A   Clear
6:53 AM 37.0 °F - 35.1 °F 93% 30.17 in 10.0 mi Calm Calm - N/A   Clear
7:53 AM 50.0 °F - 48.2 °F 94% 30.18 in 10.0 mi Calm Calm - N/A   Clear
8:53 AM 64.0 °F - 41.0 °F 43% 30.19 in 10.0 mi WSW 4.6 mph - N/A   Clear
9:53 AM 68.0 °F - 48.9 °F 50% 30.18 in 10.0 mi South 9.2 mph - N/A   Clear
10:53 AM 72.0 °F - 48.9 °F 44% 30.19 in 10.0 mi South 4.6 mph - N/A   Clear
11:53 AM 73.9 °F - 46.9 °F 38% 30.16 in 10.0 mi SSE 10.4 mph - N/A   Clear
12:53 PM 73.0 °F - 53.1 °F 49% 30.13 in 10.0 mi East 13.8 mph - N/A   Clear
1:53 PM 73.0 °F - 55.0 °F 53% 30.10 in 10.0 mi ESE 15.0 mph - N/A   Clear
2:53 PM 73.0 °F - 54.0 °F 51% 30.09 in 10.0 mi ESE 11.5 mph 20.7 mph N/A   Clear
3:53 PM 73.9 °F - 55.0 °F 52% 30.08 in 10.0 mi ESE 11.5 mph 20.7 mph N/A   Partly Cloudy
4:53 PM 73.0 °F - 55.9 °F 55% 30.08 in 10.0 mi SE 12.7 mph - N/A   Clear
5:53 PM 71.1 °F - 55.9 °F 59% 30.08 in 10.0 mi SE 10.4 mph - N/A   Clear
6:53 PM 64.9 °F - 55.0 °F 70% 30.08 in 10.0 mi SE 3.5 mph - N/A   Clear
7:53 PM 63.0 °F - 54.0 °F 72% 30.07 in 10.0 mi South 5.8 mph - N/A   Clear
8:53 PM 64.0 °F - 53.1 °F 67% 30.08 in 10.0 mi South 6.9 mph - N/A   Clear
9:53 PM 62.1 °F - 52.0 °F 70% 30.09 in 10.0 mi SW 4.6 mph - N/A   Clear
10:53 PM 60.1 °F - 51.1 °F 72% 30.08 in 10.0 mi SSW 6.9 mph - N/A   Clear
11:53 PM 57.9 °F - 52.0 °F 81% 30.07 in 10.0 mi SSW 5.8 mph - N/A   Clear